Weather History for Rocky Mount, NC

Change the Weather History Date:

Friday, April 19, 2013

  Actual Average Record
Temperature  
Mean Temperature 75 °F -  
Max Temperature 84 °F 75 °F 91 °F (1985)
Min Temperature 66 °F 48 °F 28 °F (2001)
Cooling Degree Days 10    
Growing Degree Days 25 (Base 50)    
Moisture  
Dew Point 64 °F    
Average Humidity 81    
Maximum Humidity 94    
Minimum Humidity 53    
Precipitation  
Precipitation 0.45 in - - ()
Sea Level Pressure  
Sea Level Pressure 29.91 in    
Wind  
Wind Speed 9 mph (South)    
Max Wind Speed 21 mph    
Max Gust Speed 31 mph    
Visibility 9 miles    
Events Rain , Thunderstorm    
Averages and records for this station are not official NWS values.
T = Trace of Precipitation, MM = Missing Value Source: NWS Daily Summary

Daily Weather History Graph

Daily Weather History Graph

Search for Another Location

Airport:

Trip Planner

Search our weather history database for the weather conditions in past years. The results will help you decide how hot, cold, wet, or windy it might be!

Date:

Astronomy

Apr. 19, 2013 Rise Set
Actual Time 6:33 AM EDT 7:48 PM EDT
Civil Twilight 6:06 AM EDT 8:15 PM EDT
Nautical Twilight 5:34 AM EDT 8:47 PM EDT
Astronomical Twilight 5:01 AM EDT 9:20 PM EDT
Moon 1:42 PM EDT 2:35 AM EDT
Length of Visible Light 14h 08m
Length of Day
13h 15m
First Quarter, 61% of the Moon is Illuminated
Apr 19
First Quarter
Apr 25
Full
May 2
Last Quarter
May 9
New
May 18
First Quarter

Hourly Weather History & Observations

Time (EDT) Temp. Heat Index Dew Point Humidity Pressure Visibility Wind Dir Wind Speed Gust Speed Precip Events Conditions
12:53 AM 66.9 °F - 61.0 °F 81% 30.06 in 10.0 mi South 6.9 mph - N/A   Mostly Cloudy
1:21 AM 66.2 °F - 62.6 °F 88% 30.05 in 10.0 mi South 5.8 mph - 0.00 in   Overcast
1:45 AM 66.2 °F - 62.6 °F 88% 30.04 in 10.0 mi SSE 8.1 mph - 0.00 in   Overcast
1:53 AM 66.0 °F - 62.1 °F 87% 30.03 in 10.0 mi SSE 4.6 mph - 0.00 in   Overcast
2:26 AM 66.2 °F - 62.6 °F 88% 30.01 in 10.0 mi SSE 5.8 mph - N/A   Mostly Cloudy
2:33 AM 66.2 °F - 62.6 °F 88% 30.01 in 10.0 mi South 4.6 mph - N/A   Mostly Cloudy
2:42 AM 66.2 °F - 62.6 °F 88% 30.00 in 10.0 mi SSE 4.6 mph - N/A   Mostly Cloudy
2:53 AM 66.0 °F - 62.1 °F 87% 30.00 in 10.0 mi SSE 4.6 mph - N/A   Overcast
3:53 AM 66.0 °F - 63.0 °F 90% 29.98 in 10.0 mi South 6.9 mph - N/A   Overcast
4:53 AM 66.9 °F - 64.0 °F 90% 29.96 in 10.0 mi South 10.4 mph - N/A   Overcast
5:53 AM 66.9 °F - 64.0 °F 90% 29.96 in 10.0 mi South 9.2 mph 17.3 mph N/A   Overcast
6:33 AM 68.0 °F - 64.4 °F 88% 29.96 in 9.0 mi South 9.2 mph - N/A   Overcast
6:53 AM 66.9 °F - 64.0 °F 90% 29.96 in 8.0 mi South 8.1 mph - 0.00 in   Overcast
7:37 AM 68.0 °F - 64.4 °F 88% 29.97 in 10.0 mi South 6.9 mph - N/A   Mostly Cloudy
7:53 AM 69.1 °F - 64.9 °F 87% 29.96 in 10.0 mi South 5.8 mph - N/A   Overcast
8:33 AM 71.6 °F - 64.4 °F 78% 29.96 in 10.0 mi South 10.4 mph - N/A   Overcast
8:53 AM 71.1 °F - 64.9 °F 81% 29.96 in 10.0 mi South 11.5 mph 18.4 mph N/A   Overcast
9:53 AM 73.9 °F - 64.9 °F 73% 29.96 in 10.0 mi South 17.3 mph 26.5 mph N/A   Mostly Cloudy
10:53 AM 78.1 °F - 66.0 °F 66% 29.95 in 10.0 mi South 13.8 mph 26.5 mph N/A   Mostly Cloudy
11:53 AM 79.0 °F - 64.0 °F 60% 29.93 in 10.0 mi SSW 20.7 mph 27.6 mph N/A   Mostly Cloudy
12:53 PM 82.0 °F 83.8 °F 64.9 °F 56% 29.89 in 10.0 mi South 13.8 mph 31.1 mph N/A   Mostly Cloudy
1:53 PM 84.0 °F 85.8 °F 64.9 °F 53% 29.86 in 10.0 mi South 18.4 mph 26.5 mph N/A   Scattered Clouds
2:53 PM 82.0 °F 83.8 °F 64.9 °F 56% 29.82 in 10.0 mi South 15.0 mph 28.8 mph N/A   Mostly Cloudy
3:53 PM 82.0 °F 83.8 °F 64.9 °F 56% 29.79 in 10.0 mi South 15.0 mph 27.6 mph N/A   Scattered Clouds
4:53 PM 81.0 °F 82.7 °F 64.9 °F 58% 29.78 in 10.0 mi South 18.4 mph 28.8 mph N/A   Mostly Cloudy
5:53 PM 79.0 °F - 64.0 °F 60% 29.77 in 10.0 mi South 18.4 mph 27.6 mph N/A   Partly Cloudy
6:53 PM 77.0 °F - 64.9 °F 66% 29.78 in 10.0 mi South 17.3 mph 27.6 mph N/A   Scattered Clouds
7:53 PM 77.0 °F - 66.0 °F 69% 29.82 in 10.0 mi SSW 12.7 mph 24.2 mph N/A   Mostly Cloudy
8:53 PM 68.0 °F - 64.0 °F 87% 29.86 in 1.8 mi WSW 18.4 mph 27.6 mph 0.18 in Rain Heavy Rain
9:02 PM 66.2 °F - 64.4 °F 94% 29.86 in 2.0 mi SW 12.7 mph 27.6 mph 0.09 in Rain Heavy Rain
9:11 PM 66.2 °F - 64.4 °F 94% 29.86 in 4.0 mi South 10.4 mph - 0.15 in Rain Heavy Rain
9:20 PM 66.2 °F - 64.4 °F 94% 29.86 in 5.0 mi South 10.4 mph - 0.17 in Rain , Thunderstorm Light Rain
9:46 PM 66.2 °F - 64.4 °F 94% 29.84 in 10.0 mi SSW 9.2 mph - 0.19 in Rain Light Rain
9:53 PM 66.0 °F - 64.0 °F 93% 29.85 in 10.0 mi SSW 8.1 mph - 0.20 in Rain Light Rain
10:53 PM 66.9 °F - 64.0 °F 90% 29.84 in 10.0 mi South 8.1 mph - 0.01 in Rain Light Rain
11:33 PM 66.2 °F - 64.4 °F 94% 29.82 in 10.0 mi South 9.2 mph - 0.05 in Rain Light Rain
11:41 PM 66.2 °F - 64.4 °F 94% 29.82 in 10.0 mi South 8.1 mph - 0.05 in Rain Light Rain
11:49 PM 66.2 °F - 64.4 °F 94% 29.82 in 9.0 mi South 8.1 mph - 0.06 in Rain Light Rain
11:53 PM 66.0 °F - 64.0 °F 93% 29.82 in 8.0 mi South 9.2 mph - 0.06 in Rain Light Rain